Welcome to our new website - Welkom op onze vernieuwde website - Bienvenue sur notre nouveau site web - Willkommen auf unserer neuen Website
Check our progress frequently. Prüfen Sie unsere Fortschritte regelmäßig. Consultez notre progression fréquemment. Komt u straks nog eens terug
Het weer levert geen direct gevaar op.    Er zijn geen waarschuwingen afgegeven.

Regen radar Meer informatie rain snow radar


Bezoek ook deze websites:

Template documentation
and downloads

And another site


U vindt ons ook hier:

UK Metoffice

WeatherCloud

Weather Underground

AWEKAS


Select another period ( hide this area )

Eenheden Periode Custom range Directly to
Metrisch Engels Beide
Dagelijkse Wekelijkse Maandelijkse Jaarlijkse
use both date-selectors for a custom range
previous Dag
With this date

WeatherUnderground graphs for this period ( click here )


Dagelijkse Samenvatting Zaterdag 25 mei 2019
Tijd Temp. ( °C ) Dew pt. ( °C ) Wind ( km/h ) van Windvlaag ( km/h ) Luchtdruk ( hPa ) Humid.( % ) Rainrate ( cm ) Zonneschijn ( W/m2 )
Hoog17,2 12,7 9,7 Oosten ( 36/113 ) 17,7 1017,8 94 0,80 909
Gemiddeld11,2 9,3 0,7 Kalm #141/170 2,2 1017,1 88 1,00 208 #99/170
Laag8,2 7,1 -   0,0 1016,1 73 -  
Dagelijkse Tabular details for Zaterdag 25 mei 2019
Tijd Temp. ( °C ) Dew pt. ( °C ) Wind ( km/h ) van Windvlaag ( km/h ) Luchtdruk ( hPa ) Humid.( % ) Rainrate ( cm ) Zonneschijn ( W/m2 )
00:04 11,2 8,6   Kalm   1016,8 84 - -
00:09 11,1 8,5   Kalm   1016,8 84 - -
00:14 10,9 8,3   Kalm   1017,2 84 - -
00:19 10,9 8,3   Kalm   1016,8 84 - -
00:24 10,9 8,3   Kalm   1016,8 84 - -
00:29 10,8 8,2   Kalm   1016,8 84 - -
00:34 10,8 8,2   Kalm   1016,8 84 - -
00:39 10,7 8,1   Kalm   1016,8 84 - -
00:44 10,7 8,1   Kalm   1016,8 84 - -
00:49 10,6 8,2   Kalm   1016,8 85 - -
00:54 10,4 8,0   Kalm   1016,8 85 - -
00:59 10,3 8,1   Kalm   1016,8 86 - -
01:04 10,3 8,1   Kalm   1016,8 86 - -
01:09 10,2 8,0   Kalm   1016,8 86 - -
01:14 10,2 8,0   Kalm   1016,8 86 - -
01:19 10,2 8,0   Kalm   1016,8 86 - -
01:24 10,2 8,0   Kalm   1016,8 86 - -
01:29 10,1 8,0   Kalm   1016,8 87 - -
01:34 9,9 7,8   Kalm   1016,8 87 - -
01:39 9,8 7,7   Kalm   1016,8 87 - -
01:44 9,7 7,6   Kalm   1016,8 87 - -
01:49 9,7 7,8   Kalm   1016,8 88 - -
01:54 9,6 7,7   Kalm   1016,8 88 - -
01:59 9,6 7,7   Kalm   1016,8 88 - -
02:04 9,6 7,7   Kalm   1016,8 88 - -
02:09 9,6 7,7   Kalm   1016,5 88 - -
02:14 9,5 7,6   Kalm   1016,5 88 - -
02:19 9,4 7,7   Kalm   1016,5 89 - -
02:24 9,3 7,6   Kalm   1016,5 89 - -
02:29 9,3 7,6   Kalm   1016,5 89 - -
02:34 9,4 7,7   Kalm   1016,5 89 - -
02:39 9,4 7,7   Kalm   1016,5 89 - -
02:44 9,4 7,8   Kalm   1016,5 90 - -
02:49 9,5 7,9   Kalm   1016,5 90 - -
02:54 9,4 7,7   Kalm   1016,5 89 - -
02:59 9,5 7,9   Kalm   1016,5 90 - -
03:04 9,5 7,8   Kalm   1016,5 89 - -
03:09 9,5 7,8   Kalm   1016,5 89 - -
03:14 9,4 7,7   Kalm   1016,5 89 - -
03:19 9,4 7,7   Kalm   1016,5 89 - -
03:24 9,4 7,8   Kalm   1016,5 90 - -
03:29 9,4 7,8   Kalm   1016,5 90 - -
03:34 9,3 7,7   Kalm   1016,5 90 - -
03:39 9,3 7,7   Kalm   1016,5 90 - -
03:44 9,3 7,7   Kalm   1016,5 90 - -
03:49 9,2 7,5   Kalm   1016,5 89 - -
03:54 9,1 7,5   Kalm   1016,5 90 - -
03:59 9,0 7,4   Kalm   1016,5 90 - -
04:04 9,0 7,4   Kalm   1016,5 90 - -
04:09 8,9 7,3   Kalm   1016,5 90 - -
04:14 8,8 7,2   Kalm   1016,5 90 - -
04:19 8,8 7,2   Kalm   1016,5 90 - -
04:24 8,8 7,4   Kalm   1016,5 91 - -
04:29 8,7 7,3   Kalm   1016,1 91 - -
04:34 8,7 7,3   Kalm   1016,1 91 - -
04:39 8,7 7,3   Kalm   1016,5 91 - -
04:44 8,7 7,3   Kalm   1016,5 91 - -
04:49 8,6 7,2   Kalm   1016,5 91 - -
04:54 8,6 7,2   Kalm   1016,5 91 - -
04:59 8,6 7,2   Kalm   1016,5 91 - -
05:04 8,6 7,4   Kalm   1016,5 92 - -
05:09 8,6 7,4   Kalm   1016,5 92 - -
05:14 8,5 7,1   Kalm   1016,8 91 - -
05:19 8,4 7,2   Kalm   1016,5 92 - -
05:24 8,4 7,2   Kalm   1016,8 92 - -
05:29 8,4 7,2   Kalm   1016,5 92 - -
05:34 8,4 7,2   Kalm   1016,5 92 - -
05:39 8,4 7,2   Kalm   1016,5 92 - -
05:44 8,3 7,1   Kalm   1016,5 92 - -
05:49 8,3 7,1   Kalm   1016,5 92 - -
05:54 8,3 7,1   Kalm   1016,5 92 - -
05:59 8,2 7,1   Kalm   1016,5 93 - 5
06:04 8,3 7,2   Kalm   1016,5 93 - 5
06:09 8,3 7,2   Kalm   1016,5 93 - 9
06:14 8,5 7,4   Kalm   1016,5 93 - 12
06:19 8,4 7,3   Kalm   1016,5 93 - 16
06:24 8,4 7,3   Kalm   1016,8 93 - 23
06:29 8,5 7,4   Kalm   1016,5 93 - 28
06:34 8,6 7,5   Kalm   1016,5 93 - 35
06:39 8,7 7,6   Kalm   1016,5 93 - 35
06:44 8,9 8,0   Kalm   1016,5 94 - 35
06:49 9,1 8,2   Kalm   1016,5 94 - 30
06:54 9,2 8,3   Kalm   1016,5 94 - 26
06:59 9,3 8,4   Kalm   1016,5 94 - 35
07:04 9,4 8,5   Kalm   1016,5 94 - 56
07:09 9,7 8,8   Kalm   1016,5 94 - 72
07:14 9,9 9,0   Kalm   1016,8 94 - 74
07:19 10,3 9,4   Kalm   1016,8 94 - 63
07:24 10,6 9,7 1,4 Oosten 4,8 1016,8 94 - 58
07:29 10,7 9,6   Kalm 3,2 1016,8 93 - 54
07:34 10,8 9,6   Kalm 1,6 1016,8 92 - 46
07:39 10,9 9,7   Kalm   1016,8 92 - 44
07:44 10,9 9,5 1,4 Oosten 4,8 1016,8 91 - 46
07:49 11,0 9,4   Kalm   1016,8 90 - 51
07:54 11,1 9,4 3,2 Oosten 3,2 1016,8 89 - 51
07:59 11,1 9,4   Kalm   1016,8 89 - 44
08:04 11,2 9,3   Kalm   1017,2 88 - 51
08:09 11,3 9,4   Kalm   1017,2 88 - 65
08:14 11,3 9,4   Kalm   1017,2 88 - 70
08:19 11,4 9,5   Kalm   1017,2 88 - 56
08:24 11,6 9,7   Kalm   1017,2 88 - 39
08:29 11,6 9,7   Kalm   1017,5 88 - 32
08:34 11,6 9,7 1,4 NNO 6,4 1017,5 88 - 33
08:39 11,6 9,7   Kalm 3,2 1017,5 88 - 33
08:44 11,7 9,8   Kalm 3,2 1017,8 88 - 39
08:49 11,7 9,9   Kalm 3,2 1017,8 89 0,30 62
08:54 11,7 10,1   Kalm   1017,8 90 0,30 69
08:59 11,7 10,1   Kalm 1,6 1017,8 90 0,30 49
09:04 11,7 10,3   Kalm 8,0 1017,8 91 0,30 28
09:09 11,7 10,3   Kalm 3,2 1017,8 91 0,30 30
09:13 11,7 10,3 3,2 NO 6,4 1017,8 91 0,50 39
09:19 11,6 10,2 7,9 Oosten 11,3 1017,5 91 0,50 58
09:24 11,6 10,3 1,4 ONO 11,3 1017,5 92 0,50 67
09:29 11,6 10,3   Kalm 9,7 1017,8 92 0,80 54
09:34 11,5 10,2   Kalm 6,4 1017,8 92 0,80 51
09:39 11,4 10,1   Kalm   1017,8 92 0,80 72
09:44 11,4 10,1 1,4 Oosten 4,8 1017,8 92 0,80 116
09:49 11,5 10,2   Kalm 9,7 1017,8 92 0,80 98
09:54 11,6 10,3 4,7 OZO 11,3 1017,8 92 0,50 97
09:59 11,7 10,6 3,2 OZO 12,9 1017,5 93 0,50 123
10:04 11,7 10,6 7,9 ZO 16,1 1017,2 93 0,50 116
10:09 11,8 10,7 4,7 OZO 17,7 1017,2 93 0,50 121
10:14 11,8 10,7 4,7 ZO 6,4 1017,5 93 0,50 153
10:19 11,8 10,7 6,4 ZO 11,3 1017,8 93 0,30 211
10:24 11,9 10,8 9,7 Oosten 9,7 1017,8 93 - 267
10:29 12,0 10,9 4,7 ZO 9,7 1017,8 93 - 265
10:34 12,1 11,0 3,2 ONO 4,8 1017,8 93 - 206
10:39 12,2 10,9 6,4 OZO 11,3 1017,8 92 - 207
10:44 12,3 10,9 4,7 OZO 6,4 1017,8 91 - 241
10:49 12,4 11,0 4,7 Oosten 9,7 1017,8 91 - 316
10:54 12,5 11,1 6,4 Oosten 12,9 1017,8 91 - 294
10:59 12,5 10,9   Kalm 1,6 1017,8 90 - 230
11:04 12,6 10,8   Kalm   1017,8 89 - 214
11:09 12,8 11,2 1,4 ZO 9,7 1017,8 90 - 250
11:14 12,9 11,1   Kalm 1,6 1017,8 89 - 274
11:19 13,2 11,4   Kalm 4,8 1017,8 89 - 288
11:24 13,3 11,4   Kalm 4,8 1017,8 88 - 243
11:29 13,3 11,2 3,2 OZO 4,8 1017,8 87 - 237
11:34 13,3 11,0   Kalm 3,2 1017,8 86 - 239
11:39 13,4 11,1   Kalm 6,4 1017,8 86 - 262
11:44 13,4 11,1   Kalm 3,2 1017,8 86 - 431
11:49 13,7 11,4   Kalm   1017,8 86 - 471
11:53 13,9 11,6   Kalm 3,2 1017,8 86 - 464
11:59 14,1 11,4   Kalm 4,8 1017,8 84 - 383
12:04 14,1 11,3   Kalm 4,8 1017,8 83 - 241
12:09 14,1 11,4   Kalm 1,6 1017,8 84 - 202
12:14 14,2 11,4   Kalm 6,4 1017,8 83 - 223
12:19 14,3 11,6 1,4 ZO 6,4 1017,8 84 - 309
12:24 14,3 11,5 1,4 ZO 1,6 1017,8 83 - 408
12:29 14,6 11,9 6,4 ZO 6,4 1017,8 84 - 584
12:34 14,8 11,8   Kalm 3,2 1017,8 82 - 410
12:39 14,9 12,0   Kalm 1,6 1017,8 83 - 276
12:44 15,0 11,8   Kalm   1017,8 81 - 445
12:49 15,3 12,2   Kalm   1017,8 82 - 524
12:54 15,4 12,2   Kalm 3,2 1017,8 81 - 468
12:59 15,6 12,2   Kalm 1,6 1017,8 80 - 459
13:04 15,8 12,4   Kalm   1017,8 80 - 422
13:09 15,8 12,0   Kalm 4,8 1017,8 78 - 461
13:14 16,1 12,5   Kalm 3,2 1017,8 79 - 589
13:19 16,4 12,6   Kalm 3,2 1017,8 78 - 909
13:24 16,6 12,4 1,4 ZO 8,0 1017,8 76 - 904
13:29 16,9 12,4   Kalm 6,4 1017,8 75 - 425
13:34 16,7 12,2   Kalm 3,2 1017,8 75 - 357
13:38 16,4 12,0 1,4 NO 3,2 1017,8 75 - 439
13:44 16,3 12,1   Kalm   1017,8 76 - 443
13:49 16,4 12,4   Kalm   1017,8 77 - 455
13:54 16,6 12,6   Kalm 4,8 1017,8 77 - 399
13:59 16,7 12,4   Kalm 1,6 1017,8 76 - 446
14:04 17,0 12,7   Kalm 1,6 1017,8 76 - 559
14:09 17,2 12,3 3,2 ZZW 4,8 1017,8 73 - 425
Dagelijkse Samenvatting Zaterdag 25 mei 2019
Tijd Temp. ( °C ) Dew pt. ( °C ) Wind ( km/h ) van Windvlaag ( km/h ) Luchtdruk ( hPa ) Humid.( % ) Rainrate ( cm ) Zonneschijn ( W/m2 )
Hoog17,2 12,7 9,7 Oosten ( 36/113 ) 17,7 1017,8 94 0,80 909
Gemiddeld11,2 9,3 0,7 Kalm #141/170 2,2 1017,1 88 1,00 208 #99/170
Laag8,2 7,1 -   0,0 1016,1 73 -  
Dagelijkse Tabular details for Zaterdag 25 mei 2019
Tijd Temp. ( °C ) Dew pt. ( °C ) Wind ( km/h ) van Windvlaag ( km/h ) Luchtdruk ( hPa ) Humid.( % ) Rainrate ( cm ) Zonneschijn ( W/m2 )
00:04 11,2 8,6   Kalm   1016,8 84 - -
00:09 11,1 8,5   Kalm   1016,8 84 - -
00:14 10,9 8,3   Kalm   1017,2 84 - -
00:19 10,9 8,3   Kalm   1016,8 84 - -
00:24 10,9 8,3   Kalm   1016,8 84 - -
00:29 10,8 8,2   Kalm   1016,8 84 - -
00:34 10,8 8,2   Kalm   1016,8 84 - -
00:39 10,7 8,1   Kalm   1016,8 84 - -
00:44 10,7 8,1   Kalm   1016,8 84 - -
00:49 10,6 8,2   Kalm   1016,8 85 - -
00:54 10,4 8,0   Kalm   1016,8 85 - -
00:59 10,3 8,1   Kalm   1016,8 86 - -
01:04 10,3 8,1   Kalm   1016,8 86 - -
01:09 10,2 8,0   Kalm   1016,8 86 - -
01:14 10,2 8,0   Kalm   1016,8 86 - -
01:19 10,2 8,0   Kalm   1016,8 86 - -
01:24 10,2 8,0   Kalm   1016,8 86 - -
01:29 10,1 8,0   Kalm   1016,8 87 - -
01:34 9,9 7,8   Kalm   1016,8 87 - -
01:39 9,8 7,7   Kalm   1016,8 87 - -
01:44 9,7 7,6   Kalm   1016,8 87 - -
01:49 9,7 7,8   Kalm   1016,8 88 - -
01:54 9,6 7,7   Kalm   1016,8 88 - -
01:59 9,6 7,7   Kalm   1016,8 88 - -
02:04 9,6 7,7   Kalm   1016,8 88 - -
02:09 9,6 7,7   Kalm   1016,5 88 - -
02:14 9,5 7,6   Kalm   1016,5 88 - -
02:19 9,4 7,7   Kalm   1016,5 89 - -
02:24 9,3 7,6   Kalm   1016,5 89 - -
02:29 9,3 7,6   Kalm   1016,5 89 - -
02:34 9,4 7,7   Kalm   1016,5 89 - -
02:39 9,4 7,7   Kalm   1016,5 89 - -
02:44 9,4 7,8   Kalm   1016,5 90 - -
02:49 9,5 7,9   Kalm   1016,5 90 - -
02:54 9,4 7,7   Kalm   1016,5 89 - -
02:59 9,5 7,9   Kalm   1016,5 90 - -
03:04 9,5 7,8   Kalm   1016,5 89 - -
03:09 9,5 7,8   Kalm   1016,5 89 - -
03:14 9,4 7,7   Kalm   1016,5 89 - -
03:19 9,4 7,7   Kalm   1016,5 89 - -
03:24 9,4 7,8   Kalm   1016,5 90 - -
03:29 9,4 7,8   Kalm   1016,5 90 - -
03:34 9,3 7,7   Kalm   1016,5 90 - -
03:39 9,3 7,7   Kalm   1016,5 90 - -
03:44 9,3 7,7   Kalm   1016,5 90 - -
03:49 9,2 7,5   Kalm   1016,5 89 - -
03:54 9,1 7,5   Kalm   1016,5 90 - -
03:59 9,0 7,4   Kalm   1016,5 90 - -
04:04 9,0 7,4   Kalm   1016,5 90 - -
04:09 8,9 7,3   Kalm   1016,5 90 - -
04:14 8,8 7,2   Kalm   1016,5 90 - -
04:19 8,8 7,2   Kalm   1016,5 90 - -
04:24 8,8 7,4   Kalm   1016,5 91 - -
04:29 8,7 7,3   Kalm   1016,1 91 - -
04:34 8,7 7,3   Kalm   1016,1 91 - -
04:39 8,7 7,3   Kalm   1016,5 91 - -
04:44 8,7 7,3   Kalm   1016,5 91 - -
04:49 8,6 7,2   Kalm   1016,5 91 - -
04:54 8,6 7,2   Kalm   1016,5 91 - -
04:59 8,6 7,2   Kalm   1016,5 91 - -
05:04 8,6 7,4   Kalm   1016,5 92 - -
05:09 8,6 7,4   Kalm   1016,5 92 - -
05:14 8,5 7,1   Kalm   1016,8 91 - -
05:19 8,4 7,2   Kalm   1016,5 92 - -
05:24 8,4 7,2   Kalm   1016,8 92 - -
05:29 8,4 7,2   Kalm   1016,5 92 - -
05:34 8,4 7,2   Kalm   1016,5 92 - -
05:39 8,4 7,2   Kalm   1016,5 92 - -
05:44 8,3 7,1   Kalm   1016,5 92 - -
05:49 8,3 7,1   Kalm   1016,5 92 - -
05:54 8,3 7,1   Kalm   1016,5 92 - -
05:59 8,2 7,1   Kalm   1016,5 93 - 5
06:04 8,3 7,2   Kalm   1016,5 93 - 5
06:09 8,3 7,2   Kalm   1016,5 93 - 9
06:14 8,5 7,4   Kalm   1016,5 93 - 12
06:19 8,4 7,3   Kalm   1016,5 93 - 16
06:24 8,4 7,3   Kalm   1016,8 93 - 23
06:29 8,5 7,4   Kalm   1016,5 93 - 28
06:34 8,6 7,5   Kalm   1016,5 93 - 35
06:39 8,7 7,6   Kalm   1016,5 93 - 35
06:44 8,9 8,0   Kalm   1016,5 94 - 35
06:49 9,1 8,2   Kalm   1016,5 94 - 30
06:54 9,2 8,3   Kalm   1016,5 94 - 26
06:59 9,3 8,4   Kalm   1016,5 94 - 35
07:04 9,4 8,5   Kalm   1016,5 94 - 56
07:09 9,7 8,8   Kalm   1016,5 94 - 72
07:14 9,9 9,0   Kalm   1016,8 94 - 74
07:19 10,3 9,4   Kalm   1016,8 94 - 63
07:24 10,6 9,7 1,4 Oosten 4,8 1016,8 94 - 58
07:29 10,7 9,6   Kalm 3,2 1016,8 93 - 54
07:34 10,8 9,6   Kalm 1,6 1016,8 92 - 46
07:39 10,9 9,7   Kalm   1016,8 92 - 44
07:44 10,9 9,5 1,4 Oosten 4,8 1016,8 91 - 46
07:49 11,0 9,4   Kalm   1016,8 90 - 51
07:54 11,1 9,4 3,2 Oosten 3,2 1016,8 89 - 51
07:59 11,1 9,4   Kalm   1016,8 89 - 44
08:04 11,2 9,3   Kalm   1017,2 88 - 51
08:09 11,3 9,4   Kalm   1017,2 88 - 65
08:14 11,3 9,4   Kalm   1017,2 88 - 70
08:19 11,4 9,5   Kalm   1017,2 88 - 56
08:24 11,6 9,7   Kalm   1017,2 88 - 39
08:29 11,6 9,7   Kalm   1017,5 88 - 32
08:34 11,6 9,7 1,4 NNO 6,4 1017,5 88 - 33
08:39 11,6 9,7   Kalm 3,2 1017,5 88 - 33
08:44 11,7 9,8   Kalm 3,2 1017,8 88 - 39
08:49 11,7 9,9   Kalm 3,2 1017,8 89 0,30 62
08:54 11,7 10,1   Kalm   1017,8 90 0,30 69
08:59 11,7 10,1   Kalm 1,6 1017,8 90 0,30 49
09:04 11,7 10,3   Kalm 8,0 1017,8 91 0,30 28
09:09 11,7 10,3   Kalm 3,2 1017,8 91 0,30 30
09:13 11,7 10,3 3,2 NO 6,4 1017,8 91 0,50 39
09:19 11,6 10,2 7,9 Oosten 11,3 1017,5 91 0,50 58
09:24 11,6 10,3 1,4 ONO 11,3 1017,5 92 0,50 67
09:29 11,6 10,3   Kalm 9,7 1017,8 92 0,80 54
09:34 11,5 10,2   Kalm 6,4 1017,8 92 0,80 51
09:39 11,4 10,1   Kalm   1017,8 92 0,80 72
09:44 11,4 10,1 1,4 Oosten 4,8 1017,8 92 0,80 116
09:49 11,5 10,2   Kalm 9,7 1017,8 92 0,80 98
09:54 11,6 10,3 4,7 OZO 11,3 1017,8 92 0,50 97
09:59 11,7 10,6 3,2 OZO 12,9 1017,5 93 0,50 123
10:04 11,7 10,6 7,9 ZO 16,1 1017,2 93 0,50 116
10:09 11,8 10,7 4,7 OZO 17,7 1017,2 93 0,50 121
10:14 11,8 10,7 4,7 ZO 6,4 1017,5 93 0,50 153
10:19 11,8 10,7 6,4 ZO 11,3 1017,8 93 0,30 211
10:24 11,9 10,8 9,7 Oosten 9,7 1017,8 93 - 267
10:29 12,0 10,9 4,7 ZO 9,7 1017,8 93 - 265
10:34 12,1 11,0 3,2 ONO 4,8 1017,8 93 - 206
10:39 12,2 10,9 6,4 OZO 11,3 1017,8 92 - 207
10:44 12,3 10,9 4,7 OZO 6,4 1017,8 91 - 241
10:49 12,4 11,0 4,7 Oosten 9,7 1017,8 91 - 316
10:54 12,5 11,1 6,4 Oosten 12,9 1017,8 91 - 294
10:59 12,5 10,9   Kalm 1,6 1017,8 90 - 230
11:04 12,6 10,8   Kalm   1017,8 89 - 214
11:09 12,8 11,2 1,4 ZO 9,7 1017,8 90 - 250
11:14 12,9 11,1   Kalm 1,6 1017,8 89 - 274
11:19 13,2 11,4   Kalm 4,8 1017,8 89 - 288
11:24 13,3 11,4   Kalm 4,8 1017,8 88 - 243
11:29 13,3 11,2 3,2 OZO 4,8 1017,8 87 - 237
11:34 13,3 11,0   Kalm 3,2 1017,8 86 - 239
11:39 13,4 11,1   Kalm 6,4 1017,8 86 - 262
11:44 13,4 11,1   Kalm 3,2 1017,8 86 - 431
11:49 13,7 11,4   Kalm   1017,8 86 - 471
11:53 13,9 11,6   Kalm 3,2 1017,8 86 - 464
11:59 14,1 11,4   Kalm 4,8 1017,8 84 - 383
12:04 14,1 11,3   Kalm 4,8 1017,8 83 - 241
12:09 14,1 11,4   Kalm 1,6 1017,8 84 - 202
12:14 14,2 11,4   Kalm 6,4 1017,8 83 - 223
12:19 14,3 11,6 1,4 ZO 6,4 1017,8 84 - 309
12:24 14,3 11,5 1,4 ZO 1,6 1017,8 83 - 408
12:29 14,6 11,9 6,4 ZO 6,4 1017,8 84 - 584
12:34 14,8 11,8   Kalm 3,2 1017,8 82 - 410
12:39 14,9 12,0   Kalm 1,6 1017,8 83 - 276
12:44 15,0 11,8   Kalm   1017,8 81 - 445
12:49 15,3 12,2   Kalm   1017,8 82 - 524
12:54 15,4 12,2   Kalm 3,2 1017,8 81 - 468
12:59 15,6 12,2   Kalm 1,6 1017,8 80 - 459
13:04 15,8 12,4   Kalm   1017,8 80 - 422
13:09 15,8 12,0   Kalm 4,8 1017,8 78 - 461
13:14 16,1 12,5   Kalm 3,2 1017,8 79 - 589
13:19 16,4 12,6   Kalm 3,2 1017,8 78 - 909
13:24 16,6 12,4 1,4 ZO 8,0 1017,8 76 - 904
13:29 16,9 12,4   Kalm 6,4 1017,8 75 - 425
13:34 16,7 12,2   Kalm 3,2 1017,8 75 - 357
13:38 16,4 12,0 1,4 NO 3,2 1017,8 75 - 439
13:44 16,3 12,1   Kalm   1017,8 76 - 443
13:49 16,4 12,4   Kalm   1017,8 77 - 455
13:54 16,6 12,6   Kalm 4,8 1017,8 77 - 399
13:59 16,7 12,4   Kalm 1,6 1017,8 76 - 446
14:04 17,0 12,7   Kalm 1,6 1017,8 76 - 559
14:09 17,2 12,3 3,2 ZZW 4,8 1017,8 73 - 425

Download your copy of this data-set  here

Our weather-data as stored at Weather Underground. Script ontwikkeld door Jim McMurry. Aangepast voor de template door Leuven-Template.eu

Apparatuur in gebruik:

Weerstation
Davis Vantage Pro2

Weerprogramma
Meteobridge

Weercomputer
TP-Link TL-MR3020

Webleverancier
One.com

Davis Vantage Pro2

Meteobridge

TP-Link TL-MR3020

One.com